"Pseudo-MPEC" for P210P5A

Created 2020 May 25 1:07:20 UT using Find_Orb

Click here for an explanation of pseudo-MPECs

 
 Astrometry: 
     P210P5A  C2020 04 27]%a[:oTT*t!:5gIRUepKdQl.S#By7\p=qd2K?pAstrometry@15-F51
     P210P5A  C2020 04 274BS:f%$qqg$N/#ee`6(Wo]se]mPLdHqc7CA/:.3Cq7.6QxsbShELF51
     P210P5A  C2020 04 27-\@^/tH1E@tredacted;]cplXX%!*pc@G90oclick[UAil;M!6O2F51
     P210P5A  C2020 04 27[paY1dkCjFM`0HbLaruw'fsXmNHB;)8VLgf=d0d8qN:3TU+ORfkrF51
     P210P5A  C2020 05 15`#ehK.)/F_1LLQjkb.)3\CFjR+?+qd#1himQ)VwigJo?n`[VCn8@F51
     P210P5A  C2020 05 17:\sE!Xpe[(-$\UUe1-.S1XLYr-5p!'joc=ndud)1Fk5(EH1,0d=hF51
     P210P5A  C2020 05 17jv;w1eR8UhereGUs;?HZYmIcGn1YAwqfordhGYeXDJy?Yr5xAoTTF52
     P210P5A  C2020 05 17O#8IK#\KEZvcCBgUf_YeY88n63=explanationEglGE_ppbSvagrF52
     P210P5A  C2020 05 23JiF0q2JQR)iDQZWnYx:CyPnb]j#$(mXNX*;(5meXklHdK$+D$\l@F52
     P210P5A  C2020 05 23s\wxR%ke.#oI+^pJpa@cc*4c/@agVSaOi^MBs-LvVu\nE,d,MMoWF52
     P210P5A  C2020 05 232@\tal'Aq;ImYBT+r0ZTXY;Behp4y2FtHt[:^5My^@2Zt=-^Qad8F52
     P210P5A  C2020 05 24.19193 13 37 21.12 -09 36 06.9    ~5O57 20.7 GVNEOCPI52
     P210P5A  C2020 05 24.19384 13 37 22.34 -09 36 04.2    ~5O57 20.4 GVNEOCPI52
     P210P5A  C2020 05 24.19575 13 37 23.51 -09 36 02.0    ~5O57 20.4 GVNEOCPI52
     P210P5A  C2020 05 24.19766 13 37 24.68 -09 35 59.2    ~5O57 20.3 GVNEOCPI52
     P210P5A KC2020 05 24.92451 13 46 16.18 -09 20 05.6    ~5OMq 19.4 GUNEOCPI93
     P210P5A KC2020 05 24.92903 13 46 19.30 -09 19 58.7    ~5OMq 19.9 GUNEOCPI93
     P210P5A KC2020 05 24.93834 13 46 25.90 -09 19 44.9    ~5OMq 19.9 GUNEOCPI93
     P210P5A KC2020 05 24.95792313 46 40.32 -09 19 31.3    ~5P07 19.3 GVNEOCPJ95
     P210P5A KC2020 05 24.97631013 46 53.39 -09 19 04.2    ~5P07 20.5 GVNEOCPJ95

Station data:
(F51) Pan-STARRS 1, Haleakala  (N20.707235 W156.255910)  US/Hawaii.
   Observers N. Primak, A. Schultz, S. Watters, J. Thiel, T. Goggia. Measurer
   PS1 Science Consortium. 1.8-m Ritchey-Chrétien + CCD.
(F52) Pan-STARRS 2, Haleakala  (N20.707384 W156.255910)  US/Hawaii. 1.8-m
   Ritchey-Chrétien + CCD.
(I52) Steward Observatory, Mt. Lemmon Station  (N32.442547 W110.788920)
   US/Arizona.  Observers T. A. Pruyne, B. M. Africano, E. J. Christensen, G.
   A. Farneth, D. C. Fuls, A. R. Gibbs, A. D. Grauer, H. Gröller, J. A.
   Johnson, R. A. Kowalski, S. M. Larson, G. J. Leonard, D. Rankin, R. L.
   Seaman, F. C. Shelly. 1.0-m reflector + CCD.
(I93) St Pardon de Conques  (N44.558710 W0.203000)  France.  Observer F.
   Losse. 0.40-m f/3.7 reflector + CCD.
(J95) Great Shefford  (N51.474969 W1.447003)  UK.  Observer P. Birtwhistle.
   0.40-m f/6.0 Schmidt-Cassegrain + CCD.

Orbital elements:  P210P5A
   Perihelion 2020 Jun 2.712977 +/- 0.00232 TT = 17:06:41 (JD 2459003.212977)
Epoch 2020 May 24.0 TT = JDT 2458993.5   Earth MOID: 0.0268   AutoNEOCP
M 355.60619601 +/- 0.0055           (J2000 ecliptic)
n   0.45236430 +/- 0.000675         Peri.   10.84979 +/- 0.0041
a   1.68064955 +/- 0.00167          Node   241.42775 +/- 0.0016
e   0.3814361 +/- 0.000596          Incl.    2.68225 +/- 0.0031
P   2.18/795.80d           H 26.1   G  0.15   U  7.8  
q 1.03958902 +/- 3.36e-5    Q 2.32171008 +/- 0.00332
From 20 observations 2020 Apr. 27-May 24; mean residual 0".28
Residuals in arcseconds: 
200427 F51  .04+  .11-    200517 F52  .11-  .08+    200524 I52  .40-  .25+    
200427 F51  .30-  .17-    200523 F52  .04-  .22+    200524 I93  .46-  .11-    
200427 F51  .10+  .01-    200523 F52  .64-  .26-    200524 I93  .91-  .17+    
200427 F51  .01+  .09-    200523 F52  .02-  .25+    200524 I93  .57+  .24+    
200515 F51  .09+  .06+    200524 I52  .28-  .17-    200524 J95  .43+  .22+    
200517 F51  .18+  .13+    200524 I52  .18+  .11+    200524 J95  .20-  .32-    
200517 F52  .18+  .09+    200524 I52  .11-  .12-    

Ephemerides (geocentric):
Date (UTC) HH   RA              Dec         delta   r     elong  mag " sig PA
---- -- -- --  -------------   -----------  ------ ------ -----  --- ---- ---
2020 05 25 01  13 47 48.344   -09 14 06.59  .03738 1.0435 144.3 20.5 .232   0
2020 05 25 02  13 48 20.801   -09 13 05.01  .03729 1.0435 144.3 20.5 .231   0
2020 05 25 03  13 48 53.418   -09 12 03.01  .03720 1.0434 144.4 20.5 .229 179
2020 05 25 04  13 49 26.196   -09 11 00.59  .03712 1.0434 144.5 20.5 .228 178
2020 05 25 05  13 49 59.135   -09 09 57.76  .03703 1.0434 144.6 20.5 .226 177
2020 05 25 06  13 50 32.237   -09 08 54.49  .03694 1.0433 144.7 20.5 .225 176
2020 05 25 07  13 51 05.502   -09 07 50.80  .03685 1.0433 144.7 20.5 .224 175
2020 05 25 08  13 51 38.931   -09 06 46.68  .03677 1.0432 144.8 20.5 .222 174
2020 05 25 09  13 52 12.523   -09 05 42.12  .03668 1.0432 144.9 20.5 .221 173
2020 05 25 10  13 52 46.281   -09 04 37.12  .03659 1.0432 145.0 20.4 .220 172
2020 05 25 11  13 53 20.205   -09 03 31.69  .03651 1.0431 145.1 20.4 .218 171
2020 05 25 12  13 53 54.294   -09 02 25.80  .03642 1.0431 145.1 20.4 .217 170
2020 05 25 13  13 54 28.551   -09 01 19.47  .03633 1.0431 145.2 20.4 .216 169
2020 05 25 14  13 55 02.976   -09 00 12.68  .03625 1.0430 145.3 20.4 .215 168
2020 05 25 15  13 55 37.569   -08 59 05.45  .03616 1.0430 145.4 20.4 .214 167
2020 05 25 16  13 56 12.331   -08 57 57.75  .03608 1.0430 145.5 20.4 .213 165
2020 05 25 17  13 56 47.262   -08 56 49.59  .03599 1.0429 145.5 20.4 .212 164
2020 05 25 18  13 57 22.365   -08 55 40.96  .03591 1.0429 145.6 20.4 .211 163
2020 05 25 19  13 57 57.638   -08 54 31.87  .03582 1.0429 145.7 20.4 .211 161
2020 05 25 20  13 58 33.082   -08 53 22.30  .03574 1.0428 145.8 20.4 .210 160
2020 05 25 21  13 59 08.699   -08 52 12.26  .03566 1.0428 145.9 20.4 .210 159
2020 05 25 22  13 59 44.490   -08 51 01.73  .03557 1.0428 146.0 20.4 .210 157
2020 05 25 23  14 00 20.453   -08 49 50.73  .03549 1.0427 146.1 20.4 .210 156
2020 05 26 00  14 00 56.591   -08 48 39.24  .03541 1.0427 146.1 20.3 .210 154
2020 05 26 01  14 01 32.904   -08 47 27.26  .03532 1.0427 146.2 20.3 .210 153
2020 05 26 02  14 02 09.392   -08 46 14.78  .03524 1.0426 146.3 20.3 .210 151
2020 05 26 03  14 02 46.057   -08 45 01.81  .03516 1.0426 146.4 20.3 .211 149
2020 05 26 04  14 03 22.898   -08 43 48.34  .03508 1.0426 146.5 20.3 .211 148
2020 05 26 05  14 03 59.917   -08 42 34.37  .03500 1.0425 146.6 20.3 .212 146
2020 05 26 06  14 04 37.113   -08 41 19.89  .03491 1.0425 146.7 20.3 .214 144
2020 05 26 07  14 05 14.488   -08 40 04.90  .03483 1.0425 146.8 20.3 .215 143
2020 05 26 08  14 05 52.043   -08 38 49.39  .03475 1.0424 146.8 20.3 .216 141
2020 05 26 09  14 06 29.777   -08 37 33.37  .03467 1.0424 146.9 20.3 .218 139
2020 05 26 10  14 07 07.691   -08 36 16.82  .03459 1.0424 147.0 20.3 .220 138
2020 05 26 11  14 07 45.787   -08 34 59.75  .03451 1.0423 147.1 20.3 .222 136
2020 05 26 12  14 08 24.063   -08 33 42.15  .03443 1.0423 147.2 20.3 .225 134
2020 05 26 13  14 09 02.522   -08 32 24.03  .03435 1.0423 147.3 20.2 .228 133
2020 05 26 14  14 09 41.164   -08 31 05.36  .03427 1.0422 147.4 20.2 .230 131
2020 05 26 15  14 10 19.989   -08 29 46.16  .03419 1.0422 147.5 20.2 .234 129
2020 05 26 16  14 10 58.997   -08 28 26.41  .03412 1.0422 147.6 20.2 .237 128
2020 05 26 17  14 11 38.190   -08 27 06.12  .03404 1.0421 147.7 20.2 .241 126
2020 05 26 18  14 12 17.568   -08 25 45.28  .03396 1.0421 147.8 20.2 .245 125
2020 05 26 19  14 12 57.131   -08 24 23.89  .03388 1.0421 147.9 20.2 .249 123
2020 05 26 20  14 13 36.880   -08 23 01.94  .03380 1.0421 148.0 20.2 .253 121
2020 05 26 21  14 14 16.815   -08 21 39.44  .03373 1.0420 148.1 20.2 .258 120
2020 05 26 22  14 14 56.937   -08 20 16.37  .03365 1.0420 148.2 20.2 .263 119
2020 05 26 23  14 15 37.246   -08 18 52.73  .03357 1.0420 148.3 20.2 .268 117
2020 05 27 00  14 16 17.743   -08 17 28.52  .03350 1.0419 148.4 20.2 .274 116